When you browse on this site, cookies collect data to enhance your experience and personalize the content and advertising you see.
Visit our Privacy Policy to learn more. By continuing to use the site, you agree to this use of cookies and data.
  • In Spain
  • List of Countries
  • For 7 days
  • Water Temperature
  • Satellite Maps
  • Weather Map
  • Weather Widgets
  • user-avatar
    Login

    Hourly Weather Encamp

    Today, 16 January, Wednesday

    Time Temperature Precipitation Wind Pressure Humidity
    00:00 +1°C° 0 mm 1 mps 622 mmHg 40%
    01:00 +1°C° 0 mm 1 mps 621 mmHg 38%
    02:00 +1°C° 0 mm 1 mps 621 mmHg 35%
    03:00 +1°C° 0 mm 1 mps 621 mmHg 33%
    04:00 +1°C° 0 mm 1 mps 621 mmHg 33%
    05:00 +1°C° 0 mm 1 mps 620 mmHg 32%
    06:00 +1°C° 0 mm 1 mps 620 mmHg 31%
    07:00 +2°C° 0 mm 1 mps 621 mmHg 32%
    08:00 +3°C° 0 mm 1 mps 621 mmHg 33%
    09:00 +4°C° 0 mm 1 mps 622 mmHg 34%
    10:00 +6°C° 0 mm 1 mps 622 mmHg 35%
    11:00 +7°C° 0 mm 1 mps 623 mmHg 36%
    12:00 +8°C° 0 mm 2 mps 623 mmHg 36%
    13:00 +8°C° 0 mm 1 mps 623 mmHg 40%
    14:00 +8°C° 0 mm 1 mps 622 mmHg 44%
    15:00 +7°C° 0 mm 1 mps 622 mmHg 48%
    16:00 +5°C° 0 mm 1 mps 621 mmHg 56%
    17:00 +3°C° 0 mm 1 mps 620 mmHg 64%
    18:00 0°C° 0 mm 1 mps 619 mmHg 73%
    19:00 -1°C° 0 mm 0 mps 619 mmHg 73%
    20:00 -1°C° 0 mm 0 mps 619 mmHg 73%
    21:00 -1°C° 0 mm 0 mps 619 mmHg 72%
    22:00 -2°C° 0 mm 0 mps 619 mmHg 72%
    23:00 -2°C° 0 mm 0 mps 619 mmHg 72%

    Tomorrow, 17 January, Thursday

    Time Temperature Precipitation Wind Pressure Humidity
    00:00 -2°C° 0 mm 0 mps 619 mmHg 71%
    01:00 -2°C° 0 mm 0 mps 619 mmHg 71%
    02:00 -1°C° 0 mm 1 mps 619 mmHg 71%
    03:00 -1°C° 0 mm 1 mps 619 mmHg 71%
    04:00 -2°C° 0 mm 1 mps 619 mmHg 73%
    05:00 -2°C° 0 mm 1 mps 619 mmHg 76%
    06:00 -2°C° 0 mm 1 mps 618 mmHg 79%
    07:00 -1°C° 0 mm 1 mps 619 mmHg 77%
    08:00 0°C° 0 mm 1 mps 620 mmHg 76%
    09:00 +1°C° 0 mm 1 mps 620 mmHg 75%
    10:00 +2°C° 0.3 mm 1 mps 621 mmHg 75%
    11:00 +2°C° 0.3 mm 1 mps 621 mmHg 75%
    12:00 +2°C° 0.3 mm 2 mps 621 mmHg 75%
    13:00 +1°C° 0.4 mm 2 mps 621 mmHg 77%
    14:00 -1°C° 0.4 mm 2 mps 620 mmHg 79%
    15:00 -1°C° 0.4 mm 2 mps 620 mmHg 81%
    16:00 -2°C° 0.2 mm 2 mps 620 mmHg 83%
    17:00 -3°C° 0.2 mm 2 mps 620 mmHg 85%
    18:00 -4°C° 0.2 mm 2 mps 620 mmHg 87%
    19:00 -5°C° 0 mm 2 mps 620 mmHg 86%
    20:00 -5°C° 0 mm 2 mps 620 mmHg 85%
    21:00 -6°C° 0 mm 2 mps 620 mmHg 84%
    22:00 -5°C° 0 mm 2 mps 620 mmHg 85%
    23:00 -3°C° 0 mm 1 mps 620 mmHg 86%

    Day after tomorrow, 18 January, Friday

    Time Temperature Precipitation Wind Pressure Humidity
    00:00 -3°C° 0 mm 1 mps 620 mmHg 87%
    01:00 -3°C° 0 mm 1 mps 620 mmHg 88%
    02:00 -6°C° 0 mm 2 mps 620 mmHg 89%
    03:00 -6°C° 0 mm 2 mps 619 mmHg 90%
    04:00 -7°C° 0 mm 2 mps 619 mmHg 90%
    05:00 -6°C° 0 mm 1 mps 619 mmHg 89%
    06:00 -6°C° 0 mm 1 mps 619 mmHg 89%
    07:00 -4°C° 0 mm 1 mps 619 mmHg 82%
    08:00 -3°C° 0 mm 1 mps 620 mmHg 75%
    09:00 -2°C° 0 mm 1 mps 620 mmHg 68%
    10:00 -1°C° 0 mm 1 mps 620 mmHg 63%
    11:00 0°C° 0 mm 1 mps 621 mmHg 57%
    12:00 +1°C° 0 mm 1 mps 621 mmHg 52%
    13:00 +1°C° 0 mm 1 mps 620 mmHg 55%
    14:00 +1°C° 0 mm 1 mps 620 mmHg 58%
    15:00 0°C° 0 mm 1 mps 619 mmHg 61%
    16:00 -1°C° 0 mm 1 mps 619 mmHg 69%
    17:00 -3°C° 0 mm 0 mps 619 mmHg 76%
    18:00 -4°C° 0 mm 0 mps 618 mmHg 84%
    19:00 -4°C° 0 mm 0 mps 619 mmHg 83%
    20:00 -4°C° 0 mm 0 mps 619 mmHg 82%
    21:00 -3°C° 0 mm 0 mps 619 mmHg 81%
    22:00 -4°C° 0 mm 0 mps 619 mmHg 81%
    23:00 -4°C° 0 mm 0 mps 619 mmHg 81%

    19 January, Saturday

    Time Temperature Precipitation Wind Pressure Humidity
    00:00 -5°C° 0 mm 0 mps 618 mmHg 82%
    01:00 -4°C° 0 mm 1 mps 618 mmHg 81%
    02:00 -4°C° 0 mm 1 mps 618 mmHg 80%
    03:00 -4°C° 0 mm 1 mps 617 mmHg 80%
    04:00 -4°C° 0 mm 1 mps 617 mmHg 79%
    05:00 -4°C° 0 mm 1 mps 617 mmHg 77%
    06:00 -4°C° 0 mm 1 mps 617 mmHg 76%
    07:00 -3°C° 0 mm 1 mps 618 mmHg 71%
    08:00 -3°C° 0 mm 0 mps 618 mmHg 66%
    09:00 -2°C° 0 mm 0 mps 619 mmHg 61%
    10:00 +1°C° 0 mm 1 mps 619 mmHg 58%
    11:00 +2°C° 0 mm 1 mps 619 mmHg 55%
    12:00 +3°C° 0 mm 1 mps 619 mmHg 52%
    13:00 +3°C° 0 mm 1 mps 619 mmHg 54%
    14:00 +3°C° 0 mm 1 mps 618 mmHg 57%
    15:00 +1°C° 0 mm 2 mps 617 mmHg 59%
    16:00 -1°C° 0 mm 2 mps 616 mmHg 67%
    17:00 -3°C° 0 mm 2 mps 615 mmHg 75%
    18:00 -4°C° 0 mm 2 mps 615 mmHg 83%
    19:00 -4°C° 0.2 mm 2 mps 615 mmHg 84%
    20:00 -2°C° 0.2 mm 1 mps 615 mmHg 86%
    21:00 -2°C° 0.2 mm 1 mps 615 mmHg 87%
    22:00 -2°C° 0.2 mm 1 mps 614 mmHg 88%
    23:00 -2°C° 0.2 mm 1 mps 614 mmHg 89%

    20 January, Sunday

    Time Temperature Precipitation Wind Pressure Humidity
    00:00 -3°C° 0.2 mm 0 mps 614 mmHg 91%
    01:00 -2°C° 0.1 mm 1 mps 614 mmHg 91%
    02:00 -2°C° 0.1 mm 1 mps 614 mmHg 91%
    03:00 -2°C° 0.1 mm 1 mps 614 mmHg 91%
    04:00 -4°C° 0 mm 2 mps 614 mmHg 91%
    05:00 -5°C° 0 mm 2 mps 614 mmHg 91%
    06:00 -5°C° 0 mm 2 mps 614 mmHg 91%
    07:00 -5°C° 0 mm 2 mps 615 mmHg 86%
    08:00 -5°C° 0 mm 3 mps 616 mmHg 82%
    09:00 -5°C° 0 mm 3 mps 616 mmHg 78%
    10:00 -4°C° 0.1 mm 3 mps 617 mmHg 76%
    11:00 -1°C° 0.1 mm 3 mps 617 mmHg 73%
    12:00 0°C° 0.1 mm 3 mps 618 mmHg 71%
    13:00 -1°C° 0.1 mm 3 mps 618 mmHg 70%
    14:00 -1°C° 0.1 mm 3 mps 618 mmHg 68%
    15:00 -1°C° 0.1 mm 3 mps 618 mmHg 67%
    16:00 -2°C° 0 mm 2 mps 618 mmHg 73%
    17:00 -3°C° 0 mm 2 mps 617 mmHg 79%
    18:00 -5°C° 0 mm 2 mps 617 mmHg 85%
    19:00 -5°C° 0.2 mm 2 mps 618 mmHg 86%
    20:00 -4°C° 0.2 mm 2 mps 618 mmHg 86%
    21:00 -4°C° 0.2 mm 2 mps 619 mmHg 86%
    22:00 -4°C° 0.2 mm 2 mps 619 mmHg 87%
    23:00 -4°C° 0.2 mm 2 mps 619 mmHg 88%

    21 January, Monday

    Time Temperature Precipitation Wind Pressure Humidity
    00:00 -4°C° 0.2 mm 2 mps 619 mmHg 88%
    01:00 -5°C° 0.1 mm 2 mps 618 mmHg 88%
    02:00 -5°C° 0.1 mm 2 mps 618 mmHg 88%
    03:00 -6°C° 0.1 mm 2 mps 618 mmHg 89%
    04:00 -6°C° 0.1 mm 2 mps 618 mmHg 89%
    05:00 -6°C° 0.1 mm 2 mps 618 mmHg 89%
    06:00 -6°C° 0.1 mm 2 mps 618 mmHg 89%
    07:00 -5°C° 0.1 mm 2 mps 618 mmHg 86%
    08:00 -4°C° 0.1 mm 2 mps 619 mmHg 83%
    09:00 -4°C° 0.1 mm 2 mps 619 mmHg 80%
    10:00 -3°C° 0.1 mm 2 mps 620 mmHg 76%
    11:00 -2°C° 0.1 mm 3 mps 620 mmHg 72%
    12:00 -1°C° 0.1 mm 3 mps 620 mmHg 68%
    13:00 -2°C° 0.1 mm 3 mps 620 mmHg 69%
    14:00 -2°C° 0.1 mm 3 mps 619 mmHg 71%
    15:00 -2°C° 0.1 mm 3 mps 619 mmHg 72%
    16:00 -4°C° 0.2 mm 3 mps 619 mmHg 77%
    17:00 -5°C° 0.2 mm 3 mps 619 mmHg 82%
    18:00 -6°C° 0.2 mm 3 mps 618 mmHg 87%
    19:00 -6°C° 0.1 mm 3 mps 618 mmHg 87%
    20:00 -7°C° 0.1 mm 3 mps 619 mmHg 87%
    21:00 -7°C° 0.1 mm 3 mps 619 mmHg 88%
    22:00 -7°C° 0.1 mm 3 mps 618 mmHg 87%
    23:00 -7°C° 0.1 mm 3 mps 618 mmHg 87%
    Show more